Regional Weather Roundup
Issued by NWS

Home | Current Version | Previous Version | Text Only | Print | Product List | Glossary On
Versions: 1 2 3 4 5 6 7 8 9 10 11 12 13 14 15 16 17 18 19 20 21 22 23 24 25 26 27 28 29 30 31 32 33 34 35 36 37 38 39 40 41 42 43 44 45 46 47 48 49 50
000
ASUS43 KMKX 021100
RWRWI

WISCONSIN REGIONAL WEATHER ROUNDUP
NATIONAL WEATHER SERVICE MILWAUKEE/SULLIVAN WI
600 AM CDT SUN AUG 02 2015

NOTE: "FAIR" INDICATES FEW OR NO CLOUDS BELOW 12,000 FEET WITH NO
SIGNIFICANT WEATHER AND/OR OBSTRUCTIONS TO VISIBILITY.

WIZ001-002-006>008-014>016-023>028-021200-
NORTHWEST WISCONSIN

CITY           SKY/WX    TMP DP  RH WIND       PRES   REMARKS
SUPERIOR ARPT  PTCLDY    62  58  87 NE3       29.64S
ASHLAND        MOCLDY    66  64  93 NE7       29.64F
HAYWARD        TSTM      67  64  90 S7        29.68R
SIREN          CLOUDY    63  60  91 S6        29.65F
CUMBERLAND     PTCLDY    64  63  94 NW8       29.71R
RICE LAKE      PTCLDY    66  63  88 CALM      29.70R
CHETEK         PTCLDY    68  65  89 NW3       29.68R
LADYSMITH      PTCLDY    64  63  94 CALM      29.70R
EAU CLAIRE     NOT AVBL
MENOMONIE      CLEAR     70  64  83 S8        29.65F
NEW RICHMOND   PTCLDY    68  65  90 N17       29.70R
OSCEOLA        PTCLDY    70  65  86 CALM      29.69R
$$

WIZ003>005-009-010-017-018-021200-
NORTH CENTRAL WISCONSIN

CITY           SKY/WX    TMP DP  RH WIND       PRES   REMARKS
MANITOWISH WTR MOCLDY    63  63 100 SW6       29.69F
ARBOR VITAE    PTCLDY    62  60  93 SW5       29.69F
WOODRUFF       PTCLDY    62  60  93 SW5       29.69F
RHINELANDER    PTCLDY    65  63  93 SW6       29.70F
EAGLE RIVER    MOCLDY    62  61  97 CALM      29.69F
LAND O LAKES   MOCLDY    55  55  98 CALM      29.71S
PHILLIPS       CLOUDY    65  64  97 SW3       29.69S
TOMAHAWK       CLEAR     60  59  96 CALM      29.71S FOG
MEDFORD        CLEAR     65  64  96 S7        29.69F
MERRILL        NOT AVBL
$$

WIZ029-030-035-036-043>047-021200-
CENTRAL WISCONSIN

CITY           SKY/WX    TMP DP  RH WIND       PRES   REMARKS
WAUSAU         PTCLDY    65  64  97 E5        29.68F
MOSINEE        PTCLDY    66  66 100 S7        29.72F
MARSHFIELD     PTCLDY    65  62  90 SW7       29.70F FOG
STEVENS POINT  PTCLDY    64  64  97 S3        29.73F
WAUPACA        CLOUDY    67  65  91 CALM      29.73F
WAUTOMA        NOT AVBL
WISC RAPIDS    PTCLDY    69  65  86 S6        29.72F
CAMP DOUGLAS   NOT AVBL
$$

WIZ011>013-019>022-031-037>040-048>050-021200-
NORTHEAST WISCONSIN

CITY           SKY/WX    TMP DP  RH WIND       PRES   REMARKS
ANTIGO         PTCLDY    62  61  98 SW7       29.73F
SHAWANO        LGT RAIN  66  63  88 S3        29.72F
OCONTO         MOCLDY    65  65 100 SW5       29.69F
STURGEON BAY   MOCLDY    70  63  78 SW14G21   29.72S
GREEN BAY      LGT RAIN  68  65  90 S5        29.74S
MANITOWOC      NOT AVBL
APPLETON       NOT AVBL
CLINTONVILLE   RAIN      64  63  94 S5        29.72F
OSHKOSH        MOCLDY    68  64  87 S8        29.75F
$$

WIZ032>034-041-042-053>061-021200-
SOUTHWEST WISCONSIN

CITY           SKY/WX    TMP DP  RH WIND       PRES   REMARKS
LA CROSSE      MOCLDY    74  68  81 VRB6      29.71F
SPARTA         PTCLDY    70  67  89 CALM      29.74S
VIROQUA        PTCLDY    71  70  97 SW9       29.78S
BOSCOBEL       CLEAR     69  67  93 SW3       29.78S
PRAIRIE DU CHI PTCLDY    73  67  80 SW5       29.77F
PLATTEVILLE    CLEAR     70  69  96 SW7       29.82F
$$

WIZ056-057-062-063-064-067-068-021200-
SOUTH CENTRAL WISCONSIN

CITY           SKY/WX    TMP DP  RH WIND       PRES   REMARKS
REEDSBURG      MOCLDY    72  69  89 SW9G16    29.76F
BARABOO/DELLS  MOCLDY    72  66  83 SW12      29.76F
LONE ROCK      NOT AVBL
MINERAL POINT  PTCLDY    70  68  94 SW6       29.82S
MADISON        MOCLDY    74  68  81 VRB6      29.78F
MIDDLETON      PTCLDY    74  68  83 SW12      29.79F
WATERTOWN      MOCLDY    69  69 100 S5        29.79S
MONROE         PTCLDY    68  68 100 SW10      29.83S
JANESVILLE     PTCLDY    70  68  94 S7        29.81F
$$

WIZ051-052-058>065-066-070>072-021200-
SOUTHEAST WISCONSIN

CITY           SKY/WX    TMP DP  RH WIND       PRES   REMARKS
MILWAUKEE      CLOUDY    73  66  78 NW7       29.80F
WAUKESHA       PTCLDY    72  66  83 SW7       29.82F
MILWAUKEE/TIMM MOCLDY    72  63  73 SW10      29.80F
RACINE         CLOUDY    72  67  84 SW12      29.83F
BURLINGTON     MOCLDY    68  66  93 SW6       29.82F
KENOSHA        MOCLDY    73  69  87 SW12      29.83S
FOND DU LAC    PTCLDY    69  67  93 S6        29.76F
SHEBOYGAN      MOCLDY    67  64  90 SW7       29.76F
WEST BEND      PTCLDY    72  64  78 SW13      29.78F
JUNEAU         PTCLDY    69  67  93 S9        29.79F
$$

LSZ147-162-021200-
LAKE SUPERIOR

STATION/POSITION TIME  TEMP    WIND        PRES    WAVE
                       AIR SEA DIR/SP/G            HT/PER
                 (UTC) (F)     (DEG/KT/KT) (MB)    (FT/S)
W MID LAKE BUOY  0950   61 54  310/ 19/ 23 1004.5R   1/ 3
DEVILS ISLAND    1000   64     350/  5/  7 1004.0F
PORT WING        1000   65     340/  6/  9 1005.1
SAXON HARBOR     1040   68                 1004.4S
$$

LMZ867-665-643>646-021200-
LAKE MICHIGAN

STATION/POSITION TIME  TEMP    WIND        PRES    WAVE
                       AIR SEA DIR/SP/G            HT/PER
                 (UTC) (F)     (DEG/KT/KT) (MB)    (FT/S)
CHAMBERS ISLAND  1000   68     200/  3/  6 1005.8F
S GREEN BAY BUOY 1000   69 69  200/ 16/ 19 1007.5
N MID LAKE BUOY  0950   70 68  200/ 14/ 16 1005.2F   2/ 4
NORTHPORT PIER   1000   67     180/  3/  7 1005.8F
ALGOMA LAKESHORE 1012          200/ 10/ 11   N/A
KEWAUNEE LAKESHO 1000   69     230/  5/  7 1006.5F
SHEBOYGAN LAKESH 1000   71     240/  7/  8 1008.2F
PORT WASHINGTON  1000   73     250/  4/  7 1009.1F
ATWATER BUOY     1000   71 58  230/ 10/ 14 1010.4F
MILWAUKEE LAKESH 1000   72     230/ 12/ 15   N/A
KENOSHA   LAKESH 1000   75     240/ 11/ 17 1009.8F
$$

TC  - TEMPERATURE IN CELSIUS
VSB - VISIBILITY IN STATUTE MILES
WCI - WIND CHILL INDEX
HX  - HEAT INDEX



USA.gov is the U.S. government's official web portal to all federal, state and local government web resources and services.